Wendover, UT

11:35 AM MDT on October 18, 2017 (GMT -0600)
Wendover

Weather History for KENV - January, 2013

Change the Weather History Date:

Wednesday, January 23, 2013

  Actual Average Record
Temperature  
Mean Temperature 5 °F -  
Max Temperature 12 °F 36 °F 58 °F (1934)
Min Temperature -2 °F 20 °F -10 °F (1937)
Degree Days  
Heating Degree Days 60    
Moisture  
Dew Point 1 °F    
Average Humidity 85    
Maximum Humidity 100    
Minimum Humidity 73    
Precipitation  
Precipitation 0.00 in - - ()
Sea Level Pressure  
Sea Level Pressure 30.34 in    
Wind  
Wind Speed 1 mph (SSE)    
Max Wind Speed 5 mph    
Max Gust Speed -    
Visibility 9 miles    
Events      
Averages and records for this station are not official NWS values.
T = Trace of Precipitation, MM = Missing Value Source: NWS Daily Summary

Daily Weather History Graph

Daily Weather History Graph

Search for Another Location

Airport or City:

Trip Planner

Search our weather history database for the weather conditions in past years. The results will help you decide how hot, cold, wet, or windy it might be!

Date:

Astronomy

Jan. 23, 2013 Rise Set
Actual Time 7:53 AM MST 5:43 PM MST
Civil Twilight 7:23 AM MST 6:12 PM MST
Nautical Twilight 6:50 AM MST 6:46 PM MST
Astronomical Twilight 6:18 AM MST 7:18 PM MST
Moon 2:56 PM MST (1/23) 5:08 AM MST (1/23)
Length of Visible Light 10h 48m
Length of Day
9h 49m
Waxing Gibbous, 89% of the Moon is Illuminated
Jan 23
Waxing Gibbous
Jan 26
Full
Feb 3
Last Quarter
Feb 10
New
Feb 17
First Quarter

Hourly Weather History & Observations

Time (MST) Temp. Windchill Dew Point Humidity Pressure Visibility Wind Dir Wind Speed Gust Speed Precip Events Conditions
12:15 AM -0.4 °F -8.3 °F -2.2 °F 92% 30.40 in 1.8 mi South 3.5 mph - N/A   Overcast
12:35 AM -0.4 °F - -4.0 °F 85% 30.39 in 1.5 mi Calm Calm - N/A   Overcast
12:55 AM -0.4 °F -8.3 °F -4.0 °F 85% 30.38 in 3.0 mi SE 3.5 mph - N/A   Overcast
1:15 AM -0.4 °F -8.3 °F -2.2 °F 92% 30.39 in 10.0 mi South 3.5 mph - N/A   Overcast
1:35 AM -0.4 °F - -4.0 °F 85% 30.38 in 10.0 mi Calm Calm - N/A   Overcast
1:55 AM -0.4 °F - -4.0 °F 85% 30.38 in 10.0 mi Calm Calm - N/A   Overcast
2:15 AM -0.4 °F - -4.0 °F 85% 30.38 in 10.0 mi Calm Calm - N/A   Mostly Cloudy
2:35 AM -2.2 °F - -4.0 °F 92% 30.39 in 10.0 mi Calm Calm - N/A   Mostly Cloudy
2:55 AM -2.2 °F - -5.8 °F 85% 30.39 in 6.0 mi Calm Calm - N/A   Overcast
3:15 AM -2.2 °F -10.4 °F -5.8 °F 85% 30.40 in 2.5 mi South 3.5 mph - N/A   Overcast
3:35 AM -2.2 °F - -5.8 °F 85% 30.39 in 5.0 mi Calm Calm - N/A   Overcast
3:55 AM -2.2 °F - -5.8 °F 85% 30.39 in 10.0 mi Calm Calm - N/A   Overcast
4:15 AM -2.2 °F -10.4 °F -5.8 °F 85% 30.39 in 10.0 mi SW 3.5 mph - N/A   Overcast
4:35 AM -2.2 °F -12.5 °F -5.8 °F 85% 30.37 in 10.0 mi SSW 4.6 mph - N/A   Overcast
4:55 AM -2.2 °F - -5.8 °F 85% 30.36 in 10.0 mi Calm Calm - N/A   Overcast
5:15 AM -2.2 °F - -5.8 °F 85% 30.36 in 10.0 mi Calm Calm - N/A   Overcast
5:35 AM -2.2 °F - -5.8 °F 85% 30.37 in 10.0 mi Calm Calm - N/A   Overcast
5:55 AM -2.2 °F - -5.8 °F 85% 30.37 in 10.0 mi Calm Calm - N/A   Overcast
6:15 AM -2.2 °F - -5.8 °F 85% 30.37 in 10.0 mi Calm Calm - N/A   Overcast
6:35 AM -2.2 °F - -4.0 °F 92% 30.37 in 10.0 mi Calm Calm - N/A   Overcast
6:55 AM -2.2 °F - -5.8 °F 85% 30.37 in 10.0 mi Calm Calm - N/A   Mostly Cloudy
7:15 AM -2.2 °F - -4.0 °F 92% 30.37 in 10.0 mi Calm Calm - N/A   Partly Cloudy
7:35 AM -2.2 °F - -5.8 °F 85% 30.37 in 10.0 mi Calm Calm - N/A   Clear
7:55 AM -2.2 °F - -4.0 °F 92% 30.36 in 10.0 mi Calm Calm - N/A   Clear
8:15 AM -2.2 °F -10.4 °F -5.8 °F 85% 30.36 in 10.0 mi SE 3.5 mph - N/A   Clear
8:35 AM -0.4 °F - -2.2 °F 92% 30.37 in 10.0 mi Calm Calm - N/A   Clear
8:55 AM -0.4 °F - -2.2 °F 92% 30.37 in 10.0 mi Calm Calm - N/A   Clear
9:15 AM -0.4 °F -8.3 °F -4.0 °F 85% 30.37 in 10.0 mi ENE 3.5 mph - N/A   Clear
9:35 AM 1.4 °F - -0.4 °F 92% 30.37 in 7.0 mi Calm Calm - N/A   Clear
9:55 AM 1.4 °F - -0.4 °F 92% 30.38 in 10.0 mi Calm Calm - N/A   Scattered Clouds
10:15 AM 1.4 °F - -0.4 °F 92% 30.38 in 10.0 mi Calm Calm - N/A   Partly Cloudy
10:35 AM 3.2 °F - 1.4 °F 92% 30.39 in 10.0 mi Calm Calm - N/A   Clear
10:55 AM 3.2 °F - -0.4 °F 85% 30.39 in 10.0 mi Calm Calm - N/A   Clear
11:15 AM 5.0 °F - 1.4 °F 85% 30.39 in 10.0 mi Calm Calm - N/A   Clear
11:35 AM 6.8 °F - 5.0 °F 92% 30.38 in 10.0 mi Calm Calm - N/A   Clear
11:55 AM 8.6 °F - 3.2 °F 79% 30.38 in 10.0 mi Calm Calm - N/A   Clear
12:15 PM 8.6 °F - 6.8 °F 92% 30.37 in 10.0 mi Calm Calm - N/A   Clear
12:35 PM 8.6 °F - 6.8 °F 92% 30.36 in 10.0 mi Calm Calm - N/A   Clear
12:55 PM 8.6 °F - 3.2 °F 79% 30.34 in 10.0 mi Calm Calm - N/A   Clear
1:35 PM 8.6 °F - 8.6 °F 100% 30.34 in 10.0 mi Calm Calm - N/A   Clear
1:55 PM 8.6 °F - 6.8 °F 92% 30.33 in 10.0 mi Calm Calm - N/A   Clear
2:15 PM 8.6 °F - 5.0 °F 85% 30.32 in 10.0 mi Calm Calm - N/A   Clear
2:35 PM 8.6 °F - 6.8 °F 92% 30.31 in 10.0 mi Calm Calm - N/A   Clear
2:55 PM 8.6 °F - 5.0 °F 85% 30.30 in 10.0 mi Calm Calm - N/A   Clear
3:15 PM 10.4 °F - 6.8 °F 85% 30.31 in 10.0 mi Calm Calm - N/A   Clear
3:35 PM 8.6 °F - 6.8 °F 92% 30.31 in 10.0 mi Calm Calm - N/A   Clear
3:55 PM 10.4 °F - 6.8 °F 85% 30.31 in 10.0 mi Calm Calm - N/A   Clear
4:15 PM 10.4 °F - 6.8 °F 85% 30.31 in 10.0 mi Calm Calm - N/A   Clear
4:35 PM 10.4 °F - 5.0 °F 79% 30.30 in 10.0 mi Calm Calm - N/A   Clear
4:55 PM 10.4 °F - 6.8 °F 85% 30.29 in 10.0 mi Calm Calm - N/A   Clear
5:15 PM 10.4 °F - 6.8 °F 85% 30.30 in 10.0 mi Calm Calm - N/A   Clear
5:35 PM 10.4 °F - 3.2 °F 73% 30.29 in 10.0 mi Calm Calm - N/A   Clear
5:55 PM 10.4 °F - 6.8 °F 85% 30.30 in 10.0 mi Calm Calm - N/A   Clear
6:15 PM 10.4 °F - 6.8 °F 85% 30.30 in 10.0 mi Calm Calm - N/A   Clear
6:35 PM 10.4 °F - 5.0 °F 79% 30.30 in 10.0 mi Calm Calm - N/A   Clear
6:55 PM 10.4 °F - 5.0 °F 79% 30.29 in 10.0 mi Calm Calm - N/A   Clear
7:15 PM 10.4 °F - 5.0 °F 79% 30.29 in 10.0 mi Calm Calm - N/A   Clear
7:35 PM 10.4 °F - 5.0 °F 79% 30.28 in 10.0 mi Calm Calm - N/A   Clear
7:55 PM 10.4 °F - 5.0 °F 79% 30.28 in 10.0 mi Calm Calm - N/A   Clear
8:15 PM 10.4 °F - 5.0 °F 79% 30.28 in 10.0 mi Calm Calm - N/A   Clear
8:35 PM 10.4 °F - 5.0 °F 79% 30.28 in 10.0 mi Calm Calm - N/A   Scattered Clouds
8:55 PM 10.4 °F - 5.0 °F 79% 30.28 in 10.0 mi Calm Calm - N/A   Partly Cloudy
9:15 PM 10.4 °F - 6.8 °F 85% 30.29 in 10.0 mi Calm Calm - N/A   Mostly Cloudy
9:35 PM 10.4 °F - 5.0 °F 79% 30.29 in 10.0 mi Calm Calm - N/A   Scattered Clouds
9:55 PM 10.4 °F - 6.8 °F 85% 30.29 in 10.0 mi Calm Calm - N/A   Clear
10:15 PM 12.2 °F - 6.8 °F 79% 30.30 in 10.0 mi Calm Calm - N/A   Partly Cloudy
10:35 PM 12.2 °F - 6.8 °F 79% 30.29 in 10.0 mi Calm Calm - N/A   Clear
10:55 PM 12.2 °F - 6.8 °F 79% 30.29 in 10.0 mi Calm Calm - N/A   Clear
11:15 PM 12.2 °F - 6.8 °F 79% 30.28 in 10.0 mi Calm Calm - N/A   Clear
11:35 PM 12.2 °F - 6.8 °F 79% 30.29 in 10.0 mi Calm Calm - N/A   Clear
11:55 PM 12.2 °F - 6.8 °F 79% 30.28 in 10.0 mi Calm Calm - N/A   Clear